(°C)
13°
13°
14°
16°
18°
20°
22°
(°C)
12°
12°
13°
15°
18°
19°
21°
DNy
DNy
DNy
DNy
NDN
NDN
NDN
(km/h)
9-14
9-12
9-13
7-10
6-10
8-13
11-17
(mm)
0
0
0
0
0
0
0
(%)
0
0
0
0
0
0
0

Napfelkelte

/ -4.7°
sun-icon
UV 6
05:26
20:51
Hold (fogyó félhold) (258°)
23:45
12:39

METAR 50.1°É 14.27°K (LKPR)-ért

Idő Feltételek Hőmérséklet/
Harmatpont
Szél Látási viszonyok Időjárás Felhők Légnyomás Módosítás Nyers
VFR 13°C / 11°C 230º 5kt >10km - Clouds and Visibility OK 1013 No Significant change LKPR 300230Z 23005KT CAVOK 13/11 Q1013 NOSIG
VFR 13°C / 11°C 230º 5kt >10km - Clouds and Visibility OK 1013 No Significant change LKPR 300200Z 23005KT CAVOK 13/11 Q1013 NOSIG
VFR 13°C / 11°C 220º 5kt >10km - Clouds and Visibility OK 1013 No Significant change LKPR 300130Z 22005KT CAVOK 13/11 Q1013 NOSIG
VFR 13°C / 10°C 230º 4kt >10km - Clouds and Visibility OK 1013 No Significant change LKPR 300100Z 23004KT CAVOK 13/10 Q1013 NOSIG
VFR 13°C / 10°C 220º 4kt >10km - Clouds and Visibility OK 1013 No Significant change LKPR 300030Z 22004KT CAVOK 13/10 Q1013 NOSIG
VFR 14°C / 10°C 230º 4kt >10km - Clouds and Visibility OK 1014 No Significant change LKPR 300000Z 23004KT CAVOK 14/10 Q1014 NOSIG
VFR 14°C / 10°C 230º variable 140º to 250º 5kt >10km - Clouds and Visibility OK 1014 No Significant change LKPR 292330Z 23005KT 140V250 CAVOK 14/10 Q1014 NOSIG
VFR 14°C / 10°C 220º 6kt >10km - Clouds and Visibility OK 1014 No Significant change LKPR 292300Z 22006KT CAVOK 14/10 Q1014 NOSIG
VFR 14°C / 11°C 230º 7kt >10km - Clouds and Visibility OK 1014 No Significant change LKPR 292230Z 23007KT CAVOK 14/11 Q1014 NOSIG
VFR 15°C / 11°C 220º 7kt >10km - Clouds and Visibility OK 1014 No Significant change LKPR 292200Z 22007KT CAVOK 15/11 Q1014 NOSIG
VFR 15°C / 11°C 230º 6kt >10km - Clouds and Visibility OK 1014 No Significant change LKPR 292130Z 23006KT CAVOK 15/11 Q1014 NOSIG
VFR 15°C / 11°C 250º 5kt >10km - Clouds and Visibility OK 1014 No Significant change LKPR 292100Z 25005KT CAVOK 15/11 Q1014 NOSIG
VFR 17°C / 11°C 270º 5kt >10km - Clouds and Visibility OK 1014 No Significant change LKPR 292030Z 27005KT CAVOK 17/11 Q1014 NOSIG
VFR 18°C / 11°C 270º 6kt >10km - Clouds and Visibility OK 1013 No Significant change LKPR 292000Z 27006KT CAVOK 18/11 Q1013 NOSIG
VFR 19°C / 11°C 270º 7kt >10km - Clouds and Visibility OK 1013 No Significant change LKPR 291930Z 27007KT CAVOK 19/11 Q1013 NOSIG
VFR 20°C / 11°C 270º 6kt >10km - Clouds and Visibility OK 1013 No Significant change LKPR 291900Z 27006KT CAVOK 20/11 Q1013 NOSIG
VFR 21°C / 11°C 260º 8kt >10km - Clouds and Visibility OK 1013 No Significant change LKPR 291830Z 26008KT CAVOK 21/11 Q1013 NOSIG
VFR 23°C / 11°C 250º 11kt >10km - Clouds and Visibility OK 1012 No Significant change LKPR 291800Z 25011KT CAVOK 23/11 Q1012 NOSIG
VFR 25°C / 11°C 250º 12kt >10km - Clouds and Visibility OK 1012 No Significant change LKPR 291730Z 25012KT CAVOK 25/11 Q1012 NOSIG
VFR 25°C / 11°C 240º 12kt >10km - Clouds and Visibility OK 1012 No Significant change LKPR 291700Z 24012KT CAVOK 25/11 Q1012 NOSIG
VFR 25°C / 10°C 250º 13kt >10km - Clouds and Visibility OK 1012 No Significant change LKPR 291630Z 25013KT CAVOK 25/10 Q1012 NOSIG
VFR 26°C / 11°C 250º 12kt >10km - Clouds and Visibility OK 1012 No Significant change LKPR 291600Z 25012KT CAVOK 26/11 Q1012 NOSIG
VFR 26°C / 10°C 240º 13kt >10km - Clouds and Visibility OK 1013 No Significant change LKPR 291530Z 24013KT CAVOK 26/10 Q1013 NOSIG
VFR 25°C / 11°C 250º variable 220º to 280º 15kt >10km - Clouds and Visibility OK 1013 No Significant change LKPR 291500Z 25015KT 220V280 CAVOK 25/11 Q1013 NOSIG

VFR

13°C / 11°C

[Több]
Szél 230º 5kt
Látási viszonyok >10km
Időjárás -
Felhők Clouds and Visibility OK
Légnyomás 1013
Módosítás No Significant change
Nyers LKPR 300230Z 23005KT CAVOK 13/11 Q1013 NOSIG

VFR

13°C / 11°C

[Több]
Szél 230º 5kt
Látási viszonyok >10km
Időjárás -
Felhők Clouds and Visibility OK
Légnyomás 1013
Módosítás No Significant change
Nyers LKPR 300200Z 23005KT CAVOK 13/11 Q1013 NOSIG

VFR

13°C / 11°C

[Több]
Szél 220º 5kt
Látási viszonyok >10km
Időjárás -
Felhők Clouds and Visibility OK
Légnyomás 1013
Módosítás No Significant change
Nyers LKPR 300130Z 22005KT CAVOK 13/11 Q1013 NOSIG

VFR

13°C / 10°C

[Több]
Szél 230º 4kt
Látási viszonyok >10km
Időjárás -
Felhők Clouds and Visibility OK
Légnyomás 1013
Módosítás No Significant change
Nyers LKPR 300100Z 23004KT CAVOK 13/10 Q1013 NOSIG

VFR

13°C / 10°C

[Több]
Szél 220º 4kt
Látási viszonyok >10km
Időjárás -
Felhők Clouds and Visibility OK
Légnyomás 1013
Módosítás No Significant change
Nyers LKPR 300030Z 22004KT CAVOK 13/10 Q1013 NOSIG

VFR

14°C / 10°C

[Több]
Szél 230º 4kt
Látási viszonyok >10km
Időjárás -
Felhők Clouds and Visibility OK
Légnyomás 1014
Módosítás No Significant change
Nyers LKPR 300000Z 23004KT CAVOK 14/10 Q1014 NOSIG

VFR

14°C / 10°C

[Több]
Szél 230º variable 140º to 250º 5kt
Látási viszonyok >10km
Időjárás -
Felhők Clouds and Visibility OK
Légnyomás 1014
Módosítás No Significant change
Nyers LKPR 292330Z 23005KT 140V250 CAVOK 14/10 Q1014 NOSIG

VFR

14°C / 10°C

[Több]
Szél 220º 6kt
Látási viszonyok >10km
Időjárás -
Felhők Clouds and Visibility OK
Légnyomás 1014
Módosítás No Significant change
Nyers LKPR 292300Z 22006KT CAVOK 14/10 Q1014 NOSIG

VFR

14°C / 11°C

[Több]
Szél 230º 7kt
Látási viszonyok >10km
Időjárás -
Felhők Clouds and Visibility OK
Légnyomás 1014
Módosítás No Significant change
Nyers LKPR 292230Z 23007KT CAVOK 14/11 Q1014 NOSIG

VFR

15°C / 11°C

[Több]
Szél 220º 7kt
Látási viszonyok >10km
Időjárás -
Felhők Clouds and Visibility OK
Légnyomás 1014
Módosítás No Significant change
Nyers LKPR 292200Z 22007KT CAVOK 15/11 Q1014 NOSIG

VFR

15°C / 11°C

[Több]
Szél 230º 6kt
Látási viszonyok >10km
Időjárás -
Felhők Clouds and Visibility OK
Légnyomás 1014
Módosítás No Significant change
Nyers LKPR 292130Z 23006KT CAVOK 15/11 Q1014 NOSIG

VFR

15°C / 11°C

[Több]
Szél 250º 5kt
Látási viszonyok >10km
Időjárás -
Felhők Clouds and Visibility OK
Légnyomás 1014
Módosítás No Significant change
Nyers LKPR 292100Z 25005KT CAVOK 15/11 Q1014 NOSIG

VFR

17°C / 11°C

[Több]
Szél 270º 5kt
Látási viszonyok >10km
Időjárás -
Felhők Clouds and Visibility OK
Légnyomás 1014
Módosítás No Significant change
Nyers LKPR 292030Z 27005KT CAVOK 17/11 Q1014 NOSIG

VFR

18°C / 11°C

[Több]
Szél 270º 6kt
Látási viszonyok >10km
Időjárás -
Felhők Clouds and Visibility OK
Légnyomás 1013
Módosítás No Significant change
Nyers LKPR 292000Z 27006KT CAVOK 18/11 Q1013 NOSIG

VFR

19°C / 11°C

[Több]
Szél 270º 7kt
Látási viszonyok >10km
Időjárás -
Felhők Clouds and Visibility OK
Légnyomás 1013
Módosítás No Significant change
Nyers LKPR 291930Z 27007KT CAVOK 19/11 Q1013 NOSIG

VFR

20°C / 11°C

[Több]
Szél 270º 6kt
Látási viszonyok >10km
Időjárás -
Felhők Clouds and Visibility OK
Légnyomás 1013
Módosítás No Significant change
Nyers LKPR 291900Z 27006KT CAVOK 20/11 Q1013 NOSIG

VFR

21°C / 11°C

[Több]
Szél 260º 8kt
Látási viszonyok >10km
Időjárás -
Felhők Clouds and Visibility OK
Légnyomás 1013
Módosítás No Significant change
Nyers LKPR 291830Z 26008KT CAVOK 21/11 Q1013 NOSIG

VFR

23°C / 11°C

[Több]
Szél 250º 11kt
Látási viszonyok >10km
Időjárás -
Felhők Clouds and Visibility OK
Légnyomás 1012
Módosítás No Significant change
Nyers LKPR 291800Z 25011KT CAVOK 23/11 Q1012 NOSIG

VFR

25°C / 11°C

[Több]
Szél 250º 12kt
Látási viszonyok >10km
Időjárás -
Felhők Clouds and Visibility OK
Légnyomás 1012
Módosítás No Significant change
Nyers LKPR 291730Z 25012KT CAVOK 25/11 Q1012 NOSIG

VFR

25°C / 11°C

[Több]
Szél 240º 12kt
Látási viszonyok >10km
Időjárás -
Felhők Clouds and Visibility OK
Légnyomás 1012
Módosítás No Significant change
Nyers LKPR 291700Z 24012KT CAVOK 25/11 Q1012 NOSIG

VFR

25°C / 10°C

[Több]
Szél 250º 13kt
Látási viszonyok >10km
Időjárás -
Felhők Clouds and Visibility OK
Légnyomás 1012
Módosítás No Significant change
Nyers LKPR 291630Z 25013KT CAVOK 25/10 Q1012 NOSIG

VFR

26°C / 11°C

[Több]
Szél 250º 12kt
Látási viszonyok >10km
Időjárás -
Felhők Clouds and Visibility OK
Légnyomás 1012
Módosítás No Significant change
Nyers LKPR 291600Z 25012KT CAVOK 26/11 Q1012 NOSIG

VFR

26°C / 10°C

[Több]
Szél 240º 13kt
Látási viszonyok >10km
Időjárás -
Felhők Clouds and Visibility OK
Légnyomás 1013
Módosítás No Significant change
Nyers LKPR 291530Z 24013KT CAVOK 26/10 Q1013 NOSIG

VFR

25°C / 11°C

[Több]
Szél 250º variable 220º to 280º 15kt
Látási viszonyok >10km
Időjárás -
Felhők Clouds and Visibility OK
Légnyomás 1013
Módosítás No Significant change
Nyers LKPR 291500Z 25015KT 220V280 CAVOK 25/11 Q1013 NOSIG

TAF 50.1°É 14.27°K (LKPR)-ért

From till


From till Wind 230º 8kt. Visibility 10km or more. Nil Significant Cloud.
Temporarly from till Wind 230º 12kt. Gust 22kt.
Temporarly from till Visibility 6000m. Showers Rain . Scattered Clouds 3000ft.

Nyers: TAF LKPR 292300Z 3000/3106 23008KT CAVOK TEMPO 3011/3017 23012G22KT TEMPO 3102/3106 6000 SHRA SCT030TCU

rainNOW: Eső előrejelzés 50.1°É 14.27°K és környéke (25km-es körzetben)

0.0 mm
0.0 mm
0.0 mm
0.0 mm
0.0 mm
0.0 mm
0.0 mm
0.0 mm
0.0 mm
0.0 mm
0.0 mm
0.0 mm

Aktuális műholdas és esőképek ezen a helyen: 50.1°É 14.27°K

A helyszín jelölő a következő helyen van elhelyezve: 50.1°É 14.27°K. [Több]

A valós idejű műholdas kép ötvözi a nappali látható fényt az éjszakai infravörös sugárzással. Éjjel a kép nem sötét, mivel az infravörös sugárzás képes érzékelni a hőmérséklet-különbségeket. Sajnos az alacsony felhőket és a ködöt nehéz megkülönböztetni a talaj hőmérsékletétől, így az éjszaka folyamán szinte láthatatlanok lehetnek. A Meteosat európai műholdképei valós időben frissülnek minden 5 percben. A GOES-16/GOES-17 (Észak- és Dél-Amerika) és Himawari (Ázsia) képei 10 percenként frissülnek.

A csapadékot radarok és műholdak segítségével határozzák meg. A műholdak által mért éjjeli csapadék becslése kevésbé pontos, mint a nappali. A narancssárga keresztek jelölik azokat a helyeket, ahol villámlás észlelhető (Európa felett).

Minden jog fenntartva 2021 EUMETSAT / meteoblue. nowcast által biztosított villámlással kapcsolatos adatok.

Radarkép és ultrarövid távú csapadék-előrejelzés a következő helyhez: 50.1°É 14.27°K

Szitálás
Enyhe
Mérsékelt
Erős
Nagyon nehéz
Jégeső

A helyzetjelző helye: 50.1°É 14.27°K. Ez az animáció bemutatja a csapadékradart az elmúlt órára vonatkozóan, valamint előrejelzést az elkövetkező 1 órára. Előfordulhat, hogy a radar a szitálást és az enyhe havazást nem észleli. A csapadék erősségét színkódok jelzik, a világoskéktől a sötétliláig.